Aspen, CO

12:03 AM MST on January 22, 2017 (GMT -0700)
Aspen-Pitkin County / Sardy Field

Weather History for KASE - July, 2013

Change the Weather History Date:

Sunday, July 21, 2013

  Actual Average Record
Temperature  
Mean Temperature 67 °F 64 °F  
Max Temperature 86 °F 81 °F 98 °F (1996)
Min Temperature 47 °F 48 °F 39 °F (2000)
Degree Days  
Heating Degree Days 0 2  
Month to date heating degree days 10 51  
Since 1 June heating degree days 156 280  
Since 1 July heating degree days 10 51  
Cooling Degree Days 2 1  
Month to date cooling degree days 34 19  
Year to date cooling degree days 50 23  
Since 1 June cooling degree days 50 23  
Growing Degree Days 17 (Base 50)    
Moisture  
Dew Point 29 °F    
Average Humidity 32    
Maximum Humidity 56    
Minimum Humidity 8    
Precipitation  
Precipitation 0.00 in 0.07 in 0.70 in (1985)
Month to date precipitation 0.41 1.06  
Year to date precipitation 7.18 9.13  
Sea Level Pressure  
Sea Level Pressure 29.81 in    
Wind  
Wind Speed 7 mph (SW)    
Max Wind Speed 17 mph    
Max Gust Speed 26 mph    
Visibility 10 miles    
Events      
T = Trace of Precipitation, MM = Missing Value Source: NWS Daily Summary

Daily Weather History Graph

Daily Weather History Graph

Search for Another Location

Airport or City:

Trip Planner

Search our weather history database for the weather conditions in past years. The results will help you decide how hot, cold, wet, or windy it might be!

Date:

Astronomy

Jul. 21, 2013 Rise Set
Actual Time 5:58 AM MDT 8:28 PM MDT
Civil Twilight 5:27 AM MDT 8:59 PM MDT
Nautical Twilight 4:49 AM MDT 9:37 PM MDT
Astronomical Twilight 4:06 AM MDT 10:20 PM MDT
Moon 7:29 PM MDT (7/21) 4:47 AM MDT (7/21)
Length of Visible Light 15h 31m
Length of Day
14h 30m
Waxing Gibbous, 98% of the Moon is Illuminated
Jul 21
Waxing Gibbous
Jul 22
Full
Jul 29
Last Quarter
Aug 6
New
Aug 14
First Quarter

Hourly Weather History & Observations

Time (MDT) Temp. Dew Point Humidity Pressure Visibility Wind Dir Wind Speed Gust Speed Precip Events Conditions
12:53 AM 54.0 °F 33.1 °F 45% 29.82 in 10.0 mi SW 9.2 mph - N/A   Clear
1:53 AM 52.0 °F 33.1 °F 49% 29.81 in 10.0 mi SSW 8.1 mph - N/A   Clear
2:53 AM 48.9 °F 34.0 °F 56% 29.85 in 10.0 mi SSW 6.9 mph - N/A   Clear
3:53 AM 48.9 °F 33.1 °F 54% 29.83 in 10.0 mi SSW 8.1 mph - N/A   Clear
4:53 AM 50.0 °F 33.1 °F 52% 29.83 in 10.0 mi SSW 8.1 mph - N/A   Clear
5:53 AM 50.0 °F 33.1 °F 52% 29.83 in 10.0 mi SSW 5.8 mph - N/A   Clear
6:53 AM 53.1 °F 34.0 °F 48% 29.85 in 10.0 mi SSW 5.8 mph - N/A   Clear
7:53 AM 59.0 °F 36.0 °F 42% 29.84 in 10.0 mi SE 3.5 mph - N/A   Clear
8:53 AM 64.9 °F 37.9 °F 37% 29.86 in 10.0 mi Variable 3.5 mph - N/A   Clear
9:53 AM 73.0 °F 37.0 °F 27% 29.83 in 10.0 mi Calm Calm - N/A   Clear
10:53 AM 79.0 °F 25.0 °F 14% 29.82 in 10.0 mi North 5.8 mph - N/A   Clear
11:53 AM 81.0 °F 24.1 °F 12% 29.81 in 10.0 mi Variable 5.8 mph - N/A   Partly Cloudy
12:53 PM 82.9 °F 21.9 °F 11% 29.81 in 10.0 mi Variable 4.6 mph 18.4 mph N/A   Clear
1:53 PM 84.0 °F 19.9 °F 9% 29.80 in 10.0 mi North 13.8 mph 20.7 mph N/A   Clear
2:53 PM 82.9 °F 16.0 °F 8% 29.79 in 10.0 mi Variable 6.9 mph 26.5 mph N/A   Scattered Clouds
3:53 PM 86.0 °F 18.0 °F 8% 29.77 in 10.0 mi NW 12.7 mph 19.6 mph N/A   Clear
4:53 PM 84.0 °F 19.0 °F 9% 29.76 in 10.0 mi West 9.2 mph - N/A   Clear
5:53 PM 81.0 °F 21.9 °F 11% 29.77 in 10.0 mi NW 12.7 mph - N/A   Clear
6:53 PM 81.0 °F 21.0 °F 11% 29.76 in 10.0 mi Variable 4.6 mph - N/A   Clear
7:53 PM 73.9 °F 30.9 °F 21% 29.77 in 10.0 mi SW 4.6 mph - N/A   Clear
8:53 PM 68.0 °F 35.1 °F 30% 29.79 in 10.0 mi SSW 6.9 mph - N/A   Clear
9:53 PM 63.0 °F 33.1 °F 33% 29.82 in 10.0 mi SSW 5.8 mph - N/A   Clear
10:53 PM 61.0 °F 30.9 °F 32% 29.82 in 10.0 mi SSW 6.9 mph - N/A   Clear
11:53 PM 57.9 °F 32.0 °F 37% 29.83 in 10.0 mi SSW 6.9 mph - N/A   Clear